Year,Month,Day,Hour,Minute,Value (Times are PST for temperature in C)
2017,09,01,00,00,14.30
2017,09,01,00,01,14.30
2017,09,01,00,02,14.30
2017,09,01,00,03,14.30
2017,09,01,00,04,14.20
2017,09,01,00,05,14.20
2017,09,01,00,06,14.20
2017,09,01,00,07,14.20
2017,09,01,00,08,14.20
2017,09,01,00,09,14.20
2017,09,01,00,10,14.10
2017,09,01,00,11,14.10
2017,09,01,00,12,14.10
2017,09,01,00,13,14.10
2017,09,01,00,14,14.10
2017,09,01,00,15,14.00
2017,09,01,00,16,14.00
2017,09,01,00,17,14.00
2017,09,01,00,18,13.90
2017,09,01,00,19,13.90
2017,09,01,00,20,13.90
2017,09,01,00,21,13.90
2017,09,01,00,22,13.90
2017,09,01,00,23,13.90
2017,09,01,00,24,13.80
2017,09,01,00,25,13.80
2017,09,01,00,26,13.80
2017,09,01,00,27,13.80
2017,09,01,00,28,13.80
2017,09,01,00,29,13.80
2017,09,01,00,30,13.80
2017,09,01,00,31,13.80
2017,09,01,00,32,13.70
2017,09,01,00,33,13.70
2017,09,01,00,34,13.70
2017,09,01,00,35,13.70
2017,09,01,00,36,13.70
2017,09,01,00,37,13.60
2017,09,01,00,38,13.60
2017,09,01,00,39,13.60
2017,09,01,00,40,13.60
2017,09,01,00,41,13.60
2017,09,01,00,42,13.60
2017,09,01,00,43,13.60
2017,09,01,00,44,13.60
2017,09,01,00,45,13.60
2017,09,01,00,46,13.60
2017,09,01,00,47,13.60
2017,09,01,00,48,13.60
2017,09,01,00,49,13.60
2017,09,01,00,50,13.50
2017,09,01,00,51,13.50
2017,09,01,00,52,13.50
2017,09,01,00,53,13.50
2017,09,01,00,54,13.50
2017,09,01,00,55,13.50
2017,09,01,00,56,13.50
2017,09,01,00,57,13.50
2017,09,01,00,58,13.50
2017,09,01,00,59,13.50
2017,09,01,01,00,13.50
2017,09,01,01,01,13.40
2017,09,01,01,02,13.40
2017,09,01,01,03,13.50
2017,09,01,01,04,13.40
2017,09,01,01,05,13.40
2017,09,01,01,06,13.40
2017,09,01,01,07,13.40
2017,09,01,01,08,13.40
2017,09,01,01,09,13.40
2017,09,01,01,10,13.40
2017,09,01,01,11,13.40
2017,09,01,01,12,13.40
2017,09,01,01,13,13.30
2017,09,01,01,14,13.30
2017,09,01,01,15,13.30
2017,09,01,01,16,13.30
2017,09,01,01,17,13.30
2017,09,01,01,18,13.30
2017,09,01,01,19,13.30
2017,09,01,01,20,13.30
2017,09,01,01,21,13.30
2017,09,01,01,22,13.30
2017,09,01,01,23,13.30
2017,09,01,01,24,13.30
2017,09,01,01,25,13.30
2017,09,01,01,26,13.30
2017,09,01,01,27,13.30
2017,09,01,01,28,13.30
2017,09,01,01,29,13.30
2017,09,01,01,30,13.30
2017,09,01,01,31,13.30
2017,09,01,01,32,13.20
2017,09,01,01,33,13.20
2017,09,01,01,34,13.20
2017,09,01,01,35,13.20
2017,09,01,01,36,13.20
2017,09,01,01,37,13.20
2017,09,01,01,38,13.20
2017,09,01,01,39,13.20
2017,09,01,01,40,13.20
2017,09,01,01,41,13.20
2017,09,01,01,42,13.20
2017,09,01,01,43,13.10
2017,09,01,01,44,13.10
2017,09,01,01,45,13.10
2017,09,01,01,46,13.10
2017,09,01,01,47,13.10
2017,09,01,01,48,13.10
2017,09,01,01,49,13.10
2017,09,01,01,50,13.10
2017,09,01,01,51,13.10
2017,09,01,01,52,13.10
2017,09,01,01,53,13.00
2017,09,01,01,54,13.00
2017,09,01,01,55,13.00
2017,09,01,01,56,13.00
2017,09,01,01,57,13.00
2017,09,01,01,58,13.00
2017,09,01,01,59,13.00
2017,09,01,02,00,12.90
2017,09,01,02,01,12.90
2017,09,01,02,02,12.90
2017,09,01,02,03,12.90
2017,09,01,02,04,12.90
2017,09,01,02,05,12.90
2017,09,01,02,06,12.90
2017,09,01,02,07,12.90
2017,09,01,02,08,12.80
2017,09,01,02,09,12.80
2017,09,01,02,10,12.80
2017,09,01,02,11,12.80
2017,09,01,02,12,12.80
2017,09,01,02,13,12.80
2017,09,01,02,14,12.70
2017,09,01,02,15,12.70
2017,09,01,02,16,12.70
2017,09,01,02,17,12.70
2017,09,01,02,18,12.70
2017,09,01,02,19,12.70
2017,09,01,02,20,12.70
2017,09,01,02,21,12.60
2017,09,01,02,22,12.60
2017,09,01,02,23,12.60
2017,09,01,02,24,12.60
2017,09,01,02,25,12.60
2017,09,01,02,26,12.60
2017,09,01,02,27,12.60
2017,09,01,02,28,12.60
2017,09,01,02,29,12.50
2017,09,01,02,30,12.50
2017,09,01,02,31,12.50
2017,09,01,02,32,12.50
2017,09,01,02,33,12.50
2017,09,01,02,34,12.50
2017,09,01,02,35,12.50
2017,09,01,02,36,12.50
2017,09,01,02,37,12.40
2017,09,01,02,38,12.40
2017,09,01,02,39,12.40
2017,09,01,02,40,12.40
2017,09,01,02,41,12.40
2017,09,01,02,42,12.40
2017,09,01,02,43,12.40
2017,09,01,02,44,12.40
2017,09,01,02,45,12.40
2017,09,01,02,46,12.40
2017,09,01,02,47,12.40
2017,09,01,02,48,12.40
2017,09,01,02,49,12.40
2017,09,01,02,50,12.40
2017,09,01,02,51,12.40
2017,09,01,02,52,12.40
2017,09,01,02,53,12.40
2017,09,01,02,54,12.40
2017,09,01,02,55,12.40
2017,09,01,02,56,12.40
2017,09,01,02,57,12.40
2017,09,01,02,58,12.40
2017,09,01,02,59,12.40
2017,09,01,03,00,12.40
2017,09,01,03,01,12.30
2017,09,01,03,02,12.30
2017,09,01,03,03,12.30
2017,09,01,03,04,12.30
2017,09,01,03,05,12.30
2017,09,01,03,06,12.30
2017,09,01,03,07,12.30
2017,09,01,03,08,12.30
2017,09,01,03,09,12.30
2017,09,01,03,10,12.30
2017,09,01,03,11,12.30
2017,09,01,03,12,12.20
2017,09,01,03,13,12.20
2017,09,01,03,14,12.20
2017,09,01,03,15,12.20
2017,09,01,03,16,12.20
2017,09,01,03,17,12.20
2017,09,01,03,18,12.20
2017,09,01,03,19,12.20
2017,09,01,03,20,12.10
2017,09,01,03,21,12.10
2017,09,01,03,22,12.10
2017,09,01,03,23,12.10
2017,09,01,03,24,12.10
2017,09,01,03,25,12.10
2017,09,01,03,26,12.10
2017,09,01,03,27,12.10
2017,09,01,03,28,12.10
2017,09,01,03,29,12.10
2017,09,01,03,30,12.10
2017,09,01,03,31,12.10
2017,09,01,03,32,12.10
2017,09,01,03,33,12.10
2017,09,01,03,34,12.10
2017,09,01,03,35,12.10
2017,09,01,03,36,12.00
2017,09,01,03,37,12.00
2017,09,01,03,38,12.00
2017,09,01,03,39,12.00
2017,09,01,03,40,12.00
2017,09,01,03,41,12.00
2017,09,01,03,42,12.00
2017,09,01,03,43,12.00
2017,09,01,03,44,12.00
2017,09,01,03,45,12.00
2017,09,01,03,46,12.00
2017,09,01,03,47,12.00
2017,09,01,03,48,12.00
2017,09,01,03,49,12.00
2017,09,01,03,50,12.00
2017,09,01,03,51,12.00
2017,09,01,03,52,12.00
2017,09,01,03,53,12.00
2017,09,01,03,54,12.00
2017,09,01,03,55,12.00
2017,09,01,03,56,11.90
2017,09,01,03,57,11.90
2017,09,01,03,58,11.90
2017,09,01,03,59,11.90
2017,09,01,04,00,11.90
2017,09,01,04,01,11.80
2017,09,01,04,02,11.80
2017,09,01,04,03,11.80
2017,09,01,04,04,11.80
2017,09,01,04,05,11.80
2017,09,01,04,06,11.80
2017,09,01,04,07,11.70
2017,09,01,04,08,11.70
2017,09,01,04,09,11.70
2017,09,01,04,10,11.70
2017,09,01,04,11,11.70
2017,09,01,04,12,11.70
2017,09,01,04,13,11.70
2017,09,01,04,14,11.60
2017,09,01,04,15,11.60
2017,09,01,04,16,11.60
2017,09,01,04,17,11.60
2017,09,01,04,18,11.60
2017,09,01,04,19,11.60
2017,09,01,04,20,11.60
2017,09,01,04,21,11.60
2017,09,01,04,22,11.60
2017,09,01,04,23,11.60
2017,09,01,04,24,11.60
2017,09,01,04,25,11.60
2017,09,01,04,26,11.60
2017,09,01,04,27,11.70
2017,09,01,04,28,11.60
2017,09,01,04,29,11.60
2017,09,01,04,30,11.60
2017,09,01,04,31,11.70
2017,09,01,04,32,11.70
2017,09,01,04,33,11.70
2017,09,01,04,34,11.70
2017,09,01,04,35,11.70
2017,09,01,04,36,11.70
2017,09,01,04,37,11.70
2017,09,01,04,38,11.70
2017,09,01,04,39,11.70
2017,09,01,04,40,11.70
2017,09,01,04,41,11.70
2017,09,01,04,42,11.70
2017,09,01,04,43,11.70
2017,09,01,04,44,11.70
2017,09,01,04,45,11.60
2017,09,01,04,46,11.60
2017,09,01,04,47,11.60
2017,09,01,04,48,11.60
2017,09,01,04,49,11.60
2017,09,01,04,50,11.60
2017,09,01,04,51,11.60
2017,09,01,04,52,11.50
2017,09,01,04,53,11.50
2017,09,01,04,54,11.50
2017,09,01,04,55,11.50
2017,09,01,04,56,11.50
2017,09,01,04,57,11.40
2017,09,01,04,58,11.40
2017,09,01,04,59,11.40
2017,09,01,05,00,11.40
2017,09,01,05,01,11.40
2017,09,01,05,02,11.30
2017,09,01,05,03,11.30
2017,09,01,05,04,11.30
2017,09,01,05,05,11.30
2017,09,01,05,06,11.30
2017,09,01,05,07,11.30
2017,09,01,05,08,11.30
2017,09,01,05,09,11.30
2017,09,01,05,10,11.30
2017,09,01,05,11,11.20
2017,09,01,05,12,11.20
2017,09,01,05,13,11.20
2017,09,01,05,14,11.20
2017,09,01,05,15,11.20
2017,09,01,05,16,11.10
2017,09,01,05,17,11.10
2017,09,01,05,18,11.10
2017,09,01,05,19,11.10
2017,09,01,05,20,11.10
2017,09,01,05,21,11.10
2017,09,01,05,22,11.10
2017,09,01,05,23,11.10
2017,09,01,05,24,11.00
2017,09,01,05,25,11.00
2017,09,01,05,26,11.00
2017,09,01,05,27,11.00
2017,09,01,05,28,11.00
2017,09,01,05,29,11.10
2017,09,01,05,30,11.10
2017,09,01,05,31,11.10
2017,09,01,05,32,11.10
2017,09,01,05,33,11.10
2017,09,01,05,34,11.10
2017,09,01,05,35,11.10
2017,09,01,05,36,11.00
2017,09,01,05,37,11.00
2017,09,01,05,38,11.00
2017,09,01,05,39,11.00
2017,09,01,05,40,11.00
2017,09,01,05,41,11.00
2017,09,01,05,42,11.00
2017,09,01,05,43,11.00
2017,09,01,05,44,11.00
2017,09,01,05,45,11.00
2017,09,01,05,46,11.00
2017,09,01,05,47,11.00
2017,09,01,05,48,10.90
2017,09,01,05,49,10.90
2017,09,01,05,50,10.90
2017,09,01,05,51,10.90
2017,09,01,05,52,10.90
2017,09,01,05,53,10.90
2017,09,01,05,54,10.90
2017,09,01,05,55,10.90
2017,09,01,05,56,10.90
2017,09,01,05,57,10.90
2017,09,01,05,58,11.00
2017,09,01,05,59,11.00
2017,09,01,06,00,11.00
2017,09,01,06,01,11.00
2017,09,01,06,02,11.00
2017,09,01,06,03,11.00
2017,09,01,06,04,10.90
2017,09,01,06,05,10.90
2017,09,01,06,06,10.90
2017,09,01,06,07,10.90
2017,09,01,06,08,10.90
2017,09,01,06,09,10.90
2017,09,01,06,10,10.80
2017,09,01,06,11,10.80
2017,09,01,06,12,10.80
2017,09,01,06,13,10.80
2017,09,01,06,14,10.80
2017,09,01,06,15,10.80
2017,09,01,06,16,10.80
2017,09,01,06,17,10.90
2017,09,01,06,18,10.90
2017,09,01,06,19,10.90
2017,09,01,06,20,10.90
2017,09,01,06,21,10.90
2017,09,01,06,22,10.90
2017,09,01,06,23,10.90
2017,09,01,06,24,10.90
2017,09,01,06,25,10.90
2017,09,01,06,26,10.90
2017,09,01,06,27,10.90
2017,09,01,06,28,10.90
2017,09,01,06,29,10.90
2017,09,01,06,30,10.90
2017,09,01,06,31,10.90
2017,09,01,06,32,10.80
2017,09,01,06,33,10.80
2017,09,01,06,34,10.80
2017,09,01,06,35,10.80
2017,09,01,06,36,10.80
2017,09,01,06,37,10.80
2017,09,01,06,38,10.80
2017,09,01,06,39,10.80
2017,09,01,06,40,10.70
2017,09,01,06,41,10.70
2017,09,01,06,42,10.70
2017,09,01,06,43,10.70
2017,09,01,06,44,10.70
2017,09,01,06,45,10.70
2017,09,01,06,46,10.70
2017,09,01,06,47,10.70
2017,09,01,06,48,10.70
2017,09,01,06,49,10.70
2017,09,01,06,50,10.60
2017,09,01,06,51,10.60
2017,09,01,06,52,10.60
2017,09,01,06,53,10.60
2017,09,01,06,54,10.60
2017,09,01,06,55,10.60
2017,09,01,06,56,10.60
2017,09,01,06,57,10.60
2017,09,01,06,58,10.60
2017,09,01,06,59,10.60
2017,09,01,07,00,10.70
2017,09,01,07,01,10.70
2017,09,01,07,02,10.70
2017,09,01,07,03,10.70
2017,09,01,07,04,10.70
2017,09,01,07,05,10.70
2017,09,01,07,06,10.70
2017,09,01,07,07,10.70
2017,09,01,07,08,10.70
2017,09,01,07,09,10.70
2017,09,01,07,10,10.70
2017,09,01,07,11,10.70
2017,09,01,07,12,10.70
2017,09,01,07,13,10.70
2017,09,01,07,14,10.70
2017,09,01,07,15,10.70
2017,09,01,07,16,10.70
2017,09,01,07,17,10.80
2017,09,01,07,18,10.80
2017,09,01,07,19,10.80
2017,09,01,07,20,10.80
2017,09,01,07,21,10.90
2017,09,01,07,22,10.90
2017,09,01,07,23,10.90
2017,09,01,07,24,11.00
2017,09,01,07,25,11.00
2017,09,01,07,26,11.10
2017,09,01,07,27,11.10
2017,09,01,07,28,11.10
2017,09,01,07,29,11.10
2017,09,01,07,30,11.10
2017,09,01,07,31,11.20
2017,09,01,07,32,11.20
2017,09,01,07,33,11.20
2017,09,01,07,34,11.20
2017,09,01,07,35,11.20
2017,09,01,07,36,11.20
2017,09,01,07,37,11.20
2017,09,01,07,38,11.30
2017,09,01,07,39,11.30
2017,09,01,07,40,11.30
2017,09,01,07,41,11.40
2017,09,01,07,42,11.40
2017,09,01,07,43,11.50
2017,09,01,07,44,11.50
2017,09,01,07,45,11.60
2017,09,01,07,46,11.70
2017,09,01,07,47,11.80
2017,09,01,07,48,11.80
2017,09,01,07,49,11.90
2017,09,01,07,50,12.00
2017,09,01,07,51,12.10
2017,09,01,07,52,12.20
2017,09,01,07,53,12.30
2017,09,01,07,54,12.30
2017,09,01,07,55,12.40
2017,09,01,07,56,12.50
2017,09,01,07,57,12.60
2017,09,01,07,58,12.60
2017,09,01,07,59,12.70
2017,09,01,08,00,12.80
2017,09,01,08,01,12.90
2017,09,01,08,02,12.90
2017,09,01,08,03,13.00
2017,09,01,08,04,13.10
2017,09,01,08,05,13.20
2017,09,01,08,06,13.30
2017,09,01,08,07,13.30
2017,09,01,08,08,13.40
2017,09,01,08,09,13.50
2017,09,01,08,10,13.60
2017,09,01,08,11,13.70
2017,09,01,08,12,13.80
2017,09,01,08,13,13.90
2017,09,01,08,14,14.00
2017,09,01,08,15,14.00
2017,09,01,08,16,14.20
2017,09,01,08,17,14.40
2017,09,01,08,18,14.50
2017,09,01,08,19,14.60
2017,09,01,08,20,14.80
2017,09,01,08,21,15.00
2017,09,01,08,22,15.00
2017,09,01,08,23,15.20
2017,09,01,08,24,15.30
2017,09,01,08,25,15.50
2017,09,01,08,26,15.60
2017,09,01,08,27,15.80
2017,09,01,08,28,15.90
2017,09,01,08,29,16.00
2017,09,01,08,30,16.10
2017,09,01,08,31,16.20
2017,09,01,08,32,16.30
2017,09,01,08,33,16.40
2017,09,01,08,34,16.50
2017,09,01,08,35,16.70
2017,09,01,08,36,16.70
2017,09,01,08,37,16.80
2017,09,01,08,38,16.90
2017,09,01,08,39,17.00
2017,09,01,08,40,17.00
2017,09,01,08,41,17.10
2017,09,01,08,42,17.20
2017,09,01,08,43,17.20
2017,09,01,08,44,17.20
2017,09,01,08,45,17.30
2017,09,01,08,46,17.30
2017,09,01,08,47,17.50
2017,09,01,08,48,17.60
2017,09,01,08,49,17.70
2017,09,01,08,50,17.70
2017,09,01,08,51,17.80
2017,09,01,08,52,17.80
2017,09,01,08,53,17.80
2017,09,01,08,54,17.90
2017,09,01,08,55,17.90
2017,09,01,08,56,17.90
2017,09,01,08,57,17.90
2017,09,01,08,58,17.90
2017,09,01,08,59,18.00
2017,09,01,09,00,18.00
2017,09,01,09,01,18.10
2017,09,01,09,02,18.10
2017,09,01,09,03,18.10
2017,09,01,09,04,18.20
2017,09,01,09,05,18.30
2017,09,01,09,06,18.30
2017,09,01,09,07,18.40
2017,09,01,09,08,18.50
2017,09,01,09,09,18.50
2017,09,01,09,10,18.60
2017,09,01,09,11,18.60
2017,09,01,09,12,18.70
2017,09,01,09,13,18.80
2017,09,01,09,14,18.80
2017,09,01,09,15,18.90
2017,09,01,09,16,19.00
2017,09,01,09,17,19.10
2017,09,01,09,18,19.20
2017,09,01,09,19,19.30
2017,09,01,09,20,19.30
2017,09,01,09,21,19.30
2017,09,01,09,22,19.40
2017,09,01,09,23,19.40
2017,09,01,09,24,19.50
2017,09,01,09,25,19.60
2017,09,01,09,26,19.70
2017,09,01,09,27,19.70
2017,09,01,09,28,19.80
2017,09,01,09,29,19.80
2017,09,01,09,30,19.90
2017,09,01,09,31,19.90
2017,09,01,09,32,20.00
2017,09,01,09,33,20.00
2017,09,01,09,34,20.10
2017,09,01,09,35,20.10
2017,09,01,09,36,20.10
2017,09,01,09,37,20.10
2017,09,01,09,38,20.10
2017,09,01,09,39,20.00
2017,09,01,09,40,20.00
2017,09,01,09,41,20.00
2017,09,01,09,42,20.00
2017,09,01,09,43,20.10
2017,09,01,09,44,20.10
2017,09,01,09,45,20.00
2017,09,01,09,46,20.00
2017,09,01,09,47,20.00
2017,09,01,09,48,20.00
2017,09,01,09,49,20.00
2017,09,01,09,50,20.10
2017,09,01,09,51,20.10
2017,09,01,09,52,20.20
2017,09,01,09,53,20.20
2017,09,01,09,54,20.20
2017,09,01,09,55,20.20
2017,09,01,09,56,20.20
2017,09,01,09,57,20.20
2017,09,01,09,58,20.30
2017,09,01,09,59,20.30
2017,09,01,10,00,20.30
2017,09,01,10,01,20.30
2017,09,01,10,02,20.30
2017,09,01,10,03,20.40
2017,09,01,10,04,20.40
2017,09,01,10,05,20.40
2017,09,01,10,06,20.40
2017,09,01,10,07,20.50
2017,09,01,10,08,20.50
2017,09,01,10,09,20.50
2017,09,01,10,10,20.60
2017,09,01,10,11,20.70
2017,09,01,10,12,20.70
2017,09,01,10,13,20.80
2017,09,01,10,14,20.90
2017,09,01,10,15,21.00
2017,09,01,10,16,21.00
2017,09,01,10,17,21.10
2017,09,01,10,18,21.10
2017,09,01,10,19,21.20
2017,09,01,10,20,21.10
2017,09,01,10,21,21.10
2017,09,01,10,22,21.10
2017,09,01,10,23,21.20
2017,09,01,10,24,21.10
2017,09,01,10,25,21.00
2017,09,01,10,26,21.00
2017,09,01,10,27,20.90
2017,09,01,10,28,20.90
2017,09,01,10,29,20.90
2017,09,01,10,30,20.80
2017,09,01,10,31,20.70
2017,09,01,10,32,20.60
2017,09,01,10,33,20.60
2017,09,01,10,34,20.60
2017,09,01,10,35,20.70
2017,09,01,10,36,20.60
2017,09,01,10,37,20.50
2017,09,01,10,38,20.40
2017,09,01,10,39,20.50
2017,09,01,10,40,20.50
2017,09,01,10,41,20.60
2017,09,01,10,42,20.70
2017,09,01,10,43,20.80
2017,09,01,10,44,20.90
2017,09,01,10,45,20.90
2017,09,01,10,46,21.00
2017,09,01,10,47,21.10
2017,09,01,10,48,21.10
2017,09,01,10,49,21.20
2017,09,01,10,50,21.30
2017,09,01,10,51,21.40
2017,09,01,10,52,21.50
2017,09,01,10,53,21.60
2017,09,01,10,54,21.70
2017,09,01,10,55,21.70
2017,09,01,10,56,21.50
2017,09,01,10,57,21.40
2017,09,01,10,58,21.30
2017,09,01,10,59,21.20
2017,09,01,11,00,21.10
2017,09,01,11,01,21.10
2017,09,01,11,02,21.10
2017,09,01,11,03,21.10
2017,09,01,11,04,21.10
2017,09,01,11,05,21.20
2017,09,01,11,06,21.20
2017,09,01,11,07,21.20
2017,09,01,11,08,21.20
2017,09,01,11,09,21.20
2017,09,01,11,10,21.30
2017,09,01,11,11,21.40
2017,09,01,11,12,21.50
2017,09,01,11,13,21.60
2017,09,01,11,14,21.70
2017,09,01,11,15,21.70
2017,09,01,11,16,21.80
2017,09,01,11,17,21.80
2017,09,01,11,18,21.90
2017,09,01,11,19,22.00
2017,09,01,11,20,21.90
2017,09,01,11,21,21.80
2017,09,01,11,22,21.70
2017,09,01,11,23,21.60
2017,09,01,11,24,21.40
2017,09,01,11,25,21.30
2017,09,01,11,26,21.30
2017,09,01,11,27,21.30
2017,09,01,11,28,21.30
2017,09,01,11,29,21.30
2017,09,01,11,30,21.40
2017,09,01,11,31,21.40
2017,09,01,11,32,21.50
2017,09,01,11,33,21.60
2017,09,01,11,34,21.70
2017,09,01,11,35,21.70
2017,09,01,11,36,21.70
2017,09,01,11,37,21.70
2017,09,01,11,38,21.80
2017,09,01,11,39,21.80
2017,09,01,11,40,21.90
2017,09,01,11,41,22.00
2017,09,01,11,42,22.10
2017,09,01,11,43,22.10
2017,09,01,11,44,22.20
2017,09,01,11,45,22.30
2017,09,01,11,46,22.30
2017,09,01,11,47,22.30
2017,09,01,11,48,22.40
2017,09,01,11,49,22.50
2017,09,01,11,50,22.50
2017,09,01,11,51,22.60
2017,09,01,11,52,22.70
2017,09,01,11,53,22.80
2017,09,01,11,54,22.80
2017,09,01,11,55,22.80
2017,09,01,11,56,22.90
2017,09,01,11,57,22.80
2017,09,01,11,58,22.70
2017,09,01,11,59,22.60
2017,09,01,12,00,22.50
2017,09,01,12,01,22.40
2017,09,01,12,02,22.30
2017,09,01,12,03,22.30
2017,09,01,12,04,22.30
2017,09,01,12,05,22.30
2017,09,01,12,06,22.30
2017,09,01,12,07,22.20
2017,09,01,12,08,22.10
2017,09,01,12,09,22.00
2017,09,01,12,10,21.90
2017,09,01,12,11,21.90
2017,09,01,12,12,21.80
2017,09,01,12,13,21.70
2017,09,01,12,14,21.60
2017,09,01,12,15,21.50
2017,09,01,12,16,21.50
2017,09,01,12,17,21.50
2017,09,01,12,18,21.50
2017,09,01,12,19,21.50
2017,09,01,12,20,21.50
2017,09,01,12,21,21.60
2017,09,01,12,22,21.60
2017,09,01,12,23,21.70
2017,09,01,12,24,21.80
2017,09,01,12,25,22.00
2017,09,01,12,26,22.00
2017,09,01,12,27,22.00
2017,09,01,12,28,21.90
2017,09,01,12,29,21.80
2017,09,01,12,30,21.90
2017,09,01,12,31,21.90
2017,09,01,12,32,22.00
2017,09,01,12,33,22.10
2017,09,01,12,34,22.20
2017,09,01,12,35,22.20
2017,09,01,12,36,22.30
2017,09,01,12,37,22.30
2017,09,01,12,38,22.40
2017,09,01,12,39,22.40
2017,09,01,12,40,22.40
2017,09,01,12,41,22.40
2017,09,01,12,42,22.40
2017,09,01,12,43,22.30
2017,09,01,12,44,22.30
2017,09,01,12,45,22.20
2017,09,01,12,46,22.10
2017,09,01,12,47,22.00
2017,09,01,12,48,22.00
2017,09,01,12,49,22.10
2017,09,01,12,50,22.10
2017,09,01,12,51,22.10
2017,09,01,12,52,22.10
2017,09,01,12,53,22.10
2017,09,01,12,54,22.00
2017,09,01,12,55,22.00
2017,09,01,12,56,21.90
2017,09,01,12,57,22.00
2017,09,01,12,58,22.10
2017,09,01,12,59,22.20
2017,09,01,13,00,22.20
2017,09,01,13,01,22.20
2017,09,01,13,02,22.20
2017,09,01,13,03,22.20
2017,09,01,13,04,22.20
2017,09,01,13,05,22.30
2017,09,01,13,06,22.30
2017,09,01,13,07,22.50
2017,09,01,13,08,22.70
2017,09,01,13,09,22.80
2017,09,01,13,10,22.90
2017,09,01,13,11,23.00
2017,09,01,13,12,23.20
2017,09,01,13,13,23.30
2017,09,01,13,14,23.40
2017,09,01,13,15,23.40
2017,09,01,13,16,23.40
2017,09,01,13,17,23.30
2017,09,01,13,18,23.30
2017,09,01,13,19,23.30
2017,09,01,13,20,23.30
2017,09,01,13,21,23.30
2017,09,01,13,22,23.30
2017,09,01,13,23,23.30
2017,09,01,13,24,23.20
2017,09,01,13,25,23.20
2017,09,01,13,26,23.10
2017,09,01,13,27,23.10
2017,09,01,13,28,23.20
2017,09,01,13,29,23.20
2017,09,01,13,30,23.30
2017,09,01,13,31,23.30
2017,09,01,13,32,23.20
2017,09,01,13,33,23.30
2017,09,01,13,34,23.30
2017,09,01,13,35,23.30
2017,09,01,13,36,23.30
2017,09,01,13,37,23.30
2017,09,01,13,38,23.30
2017,09,01,13,39,23.30
2017,09,01,13,40,23.30
2017,09,01,13,41,23.30
2017,09,01,13,42,23.30
2017,09,01,13,43,23.30
2017,09,01,13,44,23.30
2017,09,01,13,45,23.30
2017,09,01,13,46,23.40
2017,09,01,13,47,23.40
2017,09,01,13,48,23.30
2017,09,01,13,49,23.30
2017,09,01,13,50,23.40
2017,09,01,13,51,23.50
2017,09,01,13,52,23.50
2017,09,01,13,53,23.50
2017,09,01,13,54,23.50
2017,09,01,13,55,23.50
2017,09,01,13,56,23.60
2017,09,01,13,57,23.70
2017,09,01,13,58,23.80
2017,09,01,13,59,23.90
2017,09,01,14,00,24.10
2017,09,01,14,01,24.10
2017,09,01,14,02,24.00
2017,09,01,14,03,24.00
2017,09,01,14,04,24.00
2017,09,01,14,05,24.00
2017,09,01,14,06,24.10
2017,09,01,14,07,24.20
2017,09,01,14,08,24.20
2017,09,01,14,09,24.20
2017,09,01,14,10,24.10
2017,09,01,14,11,24.00
2017,09,01,14,12,23.90
2017,09,01,14,13,23.90
2017,09,01,14,14,23.90
2017,09,01,14,15,23.90
2017,09,01,14,16,23.90
2017,09,01,14,17,23.90
2017,09,01,14,18,24.00
2017,09,01,14,19,24.20
2017,09,01,14,20,24.30
2017,09,01,14,21,24.50
2017,09,01,14,22,24.60
2017,09,01,14,23,24.70
2017,09,01,14,24,24.70
2017,09,01,14,25,24.70
2017,09,01,14,26,24.60
2017,09,01,14,27,24.60
2017,09,01,14,28,24.60
2017,09,01,14,29,24.60
2017,09,01,14,30,24.60
2017,09,01,14,31,24.70
2017,09,01,14,32,24.80
2017,09,01,14,33,24.80
2017,09,01,14,34,24.90
2017,09,01,14,35,25.00
2017,09,01,14,36,25.10
2017,09,01,14,37,25.20
2017,09,01,14,38,25.20
2017,09,01,14,39,25.20
2017,09,01,14,40,25.20
2017,09,01,14,41,25.20
2017,09,01,14,42,25.20
2017,09,01,14,43,25.30
2017,09,01,14,44,25.40
2017,09,01,14,45,25.40
2017,09,01,14,46,25.50
2017,09,01,14,47,25.60
2017,09,01,14,48,25.60
2017,09,01,14,49,25.60
2017,09,01,14,50,25.60
2017,09,01,14,51,25.60
2017,09,01,14,52,25.60
2017,09,01,14,53,25.80
2017,09,01,14,54,25.90
2017,09,01,14,55,26.00
2017,09,01,14,56,26.00
2017,09,01,14,57,25.90
2017,09,01,14,58,25.80
2017,09,01,14,59,25.60
2017,09,01,15,00,25.50
2017,09,01,15,01,25.40
2017,09,01,15,02,25.50
2017,09,01,15,03,25.60
2017,09,01,15,04,25.60
2017,09,01,15,05,25.50
2017,09,01,15,06,25.60
2017,09,01,15,07,25.60
2017,09,01,15,08,25.70
2017,09,01,15,09,25.70
2017,09,01,15,10,25.60
2017,09,01,15,11,25.60
2017,09,01,15,12,25.50
2017,09,01,15,13,25.40
2017,09,01,15,14,25.30
2017,09,01,15,15,25.30
2017,09,01,15,16,25.30
2017,09,01,15,17,25.30
2017,09,01,15,18,25.30
2017,09,01,15,19,25.20
2017,09,01,15,20,25.20
2017,09,01,15,21,25.30
2017,09,01,15,22,25.30
2017,09,01,15,23,25.20
2017,09,01,15,24,25.20
2017,09,01,15,25,25.20
2017,09,01,15,26,25.20
2017,09,01,15,27,25.30
2017,09,01,15,28,25.30
2017,09,01,15,29,25.40
2017,09,01,15,30,25.50
2017,09,01,15,31,25.50
2017,09,01,15,32,25.50
2017,09,01,15,33,25.60
2017,09,01,15,34,25.70
2017,09,01,15,35,25.80
2017,09,01,15,36,25.90
2017,09,01,15,37,25.90
2017,09,01,15,38,26.00
2017,09,01,15,39,26.10
2017,09,01,15,40,26.10
2017,09,01,15,41,26.10
2017,09,01,15,42,26.20
2017,09,01,15,43,26.30
2017,09,01,15,44,26.40
2017,09,01,15,45,26.40
2017,09,01,15,46,26.40
2017,09,01,15,47,26.40
2017,09,01,15,48,26.30
2017,09,01,15,49,26.30
2017,09,01,15,50,26.30
2017,09,01,15,51,26.20
2017,09,01,15,52,26.20
2017,09,01,15,53,26.20
2017,09,01,15,54,26.20
2017,09,01,15,55,26.10
2017,09,01,15,56,26.00
2017,09,01,15,57,25.90
2017,09,01,15,58,25.80
2017,09,01,15,59,25.70
2017,09,01,16,00,25.60
2017,09,01,16,01,25.50
2017,09,01,16,02,25.40
2017,09,01,16,03,25.30
2017,09,01,16,04,25.30
2017,09,01,16,05,25.20
2017,09,01,16,06,25.20
2017,09,01,16,07,25.10
2017,09,01,16,08,25.20
2017,09,01,16,09,25.10
2017,09,01,16,10,25.10
2017,09,01,16,11,25.00
2017,09,01,16,12,25.00
2017,09,01,16,13,25.00
2017,09,01,16,14,25.00
2017,09,01,16,15,25.00
2017,09,01,16,16,24.90
2017,09,01,16,17,25.00
2017,09,01,16,18,25.00
2017,09,01,16,19,25.10
2017,09,01,16,20,25.10
2017,09,01,16,21,25.10
2017,09,01,16,22,25.20
2017,09,01,16,23,25.20
2017,09,01,16,24,25.10
2017,09,01,16,25,25.00
2017,09,01,16,26,24.90
2017,09,01,16,27,24.90
2017,09,01,16,28,24.90
2017,09,01,16,29,25.00
2017,09,01,16,30,25.00
2017,09,01,16,31,25.10
2017,09,01,16,32,25.20
2017,09,01,16,33,25.20
2017,09,01,16,34,25.20
2017,09,01,16,35,25.20
2017,09,01,16,36,25.20
2017,09,01,16,37,25.20
2017,09,01,16,38,25.30
2017,09,01,16,39,25.40
2017,09,01,16,40,25.40
2017,09,01,16,41,25.50
2017,09,01,16,42,25.60
2017,09,01,16,43,25.70
2017,09,01,16,44,25.80
2017,09,01,16,45,25.90
2017,09,01,16,46,26.00
2017,09,01,16,47,26.10
2017,09,01,16,48,26.10
2017,09,01,16,49,26.10
2017,09,01,16,50,26.10
2017,09,01,16,51,25.90
2017,09,01,16,52,25.80
2017,09,01,16,53,25.60
2017,09,01,16,54,25.40
2017,09,01,16,55,25.30
2017,09,01,16,56,25.20
2017,09,01,16,57,25.10
2017,09,01,16,58,25.00
2017,09,01,16,59,24.90
2017,09,01,17,00,24.80
2017,09,01,17,01,24.80
2017,09,01,17,02,24.80
2017,09,01,17,03,24.90
2017,09,01,17,04,24.90
2017,09,01,17,05,25.00
2017,09,01,17,06,25.10
2017,09,01,17,07,25.20
2017,09,01,17,08,25.30
2017,09,01,17,09,25.20
2017,09,01,17,10,25.20
2017,09,01,17,11,25.10
2017,09,01,17,12,25.10
2017,09,01,17,13,25.00
2017,09,01,17,14,25.00
2017,09,01,17,15,25.00
2017,09,01,17,16,25.00
2017,09,01,17,17,25.00
2017,09,01,17,18,25.00
2017,09,01,17,19,24.90